Retour au catalogue

ONEWEB-0645

ActifCommunicationsPO
NORAD 55809·PAYLOAD·🇬🇧 United Kingdom

Lancé Mar 9, 2023 depuis Cape Canaveral Space Force Station

Loading…

Prochains Passages (prochaines 24 heures)

TLE

FraisSource: CelesTrak SupGP

Époque: Sep 14, 2026, 18:07 UTC

1 55809C 23029P   26257.75502732 -.00002915  00000+0 -72907-2 0  2578
2 55809  87.9105 287.1306 0002189  83.4197  30.3970 13.19727271    11

Suivez ONEWEB-0645 en temps réel avec AllMySat

Download on the App Store